This is the latest recevied weather packets stored in our database for station/object W5CDN. If no packets are shown the sender has not sent any weather packets the latest 10 day(s).
| Time | Temp. | Humidity | Pressure | Rain* | Wind** | Luminosity | Snow |
|---|---|---|---|---|---|---|---|
| 1787811236 | 30° C | 64% | 1012.8 hPa | 0 mm | - | - | - |
| 1787810936 | 29.44° C | 64% | 1012.6 hPa | 0 mm | - | - | - |
| 1787810636 | 29.44° C | 64% | 1012.6 hPa | 0 mm | - | - | - |
| 1787810336 | 29.44° C | 65% | 1012.5 hPa | 0 mm | - | - | - |
| 1787810036 | 29.44° C | 65% | 1012.6 hPa | 0 mm | - | - | - |
| 1787809736 | 29.44° C | 65% | 1012.6 hPa | 0 mm | - | - | - |
| 1787809436 | 29.44° C | 64% | 1012.4 hPa | 0 mm | - | - | - |
| 1787809136 | 28.89° C | 65% | 1012.5 hPa | 0 mm | - | - | - |
| 1787808836 | 29.44° C | 65% | 1012.4 hPa | 0 mm | - | - | - |
| 1787808536 | 29.44° C | 65% | 1012.2 hPa | 0 mm | - | - | - |
| 1787808236 | 29.44° C | 65% | 1012.3 hPa | 0 mm | - | - | - |
| 1787807936 | 29.44° C | 65% | 1012.2 hPa | 0 mm | - | - | - |
| 1787807636 | 29.44° C | 65% | 1012.2 hPa | 0 mm | - | - | - |
| 1787807336 | 29.44° C | 64% | 1012 hPa | 0 mm | - | - | - |
| 1787807036 | 30° C | 64% | 1012.2 hPa | 0 mm | - | - | - |
| 1787806736 | 30° C | 63% | 1012.3 hPa | 0 mm | - | - | - |
| 1787806436 | 30° C | 62% | 1012.4 hPa | 0 mm | - | - | - |
| 1787806136 | 30° C | 61% | 1012.2 hPa | 0 mm | - | - | - |
| 1787805836 | 30.56° C | 61% | 1012.3 hPa | 0 mm | - | - | - |
| 1787805536 | 30.56° C | 59% | 1012.3 hPa | 0 mm | - | - | - |
| 1787805236 | 31.11° C | 59% | 1012.4 hPa | 0 mm | - | - | - |
| 1787804936 | 31.11° C | 57% | 1012.3 hPa | 0 mm | - | - | - |
| 1787804636 | 31.11° C | 57% | 1012.2 hPa | 0 mm | - | - | - |
| 1787804336 | 31.67° C | 57% | 1012.1 hPa | 0 mm | - | - | - |
| 1787804036 | 31.67° C | 56% | 1011.9 hPa | 0 mm | - | - | - |
* Rain latest hour (hover to see other rain measurements)
** Current wind speed in m/s (hover to see current wind gust speed)